| time (UTC) | temp F | wind direction | speed MPH | gust MPH | rain 1hr in | rain 24hr in | rain mn in | humidity % | barometer mb |
| 20260905134609 | 68 | 344 | 0.0 | 0.0 | 0.00 | 0.01 | 0.00 | 98 | 1012.2 |
| 20260905133008 | 68 | 344 | 0.0 | 0.0 | 0.00 | 0.01 | 0.00 | 98 | 1012.4 |
| 20260905131544 | 68 | 344 | 0.0 | 0.0 | 0.00 | 0.01 | 0.00 | 99 | 1012.5 |
| 20260905130018 | 67 | 344 | 0.0 | 2.0 | 0.00 | 0.01 | 0.00 | 98 | 1012.5 |
| 20260905124600 | 67 | 344 | 0.0 | 2.0 | 0.00 | 0.01 | 0.00 | 99 | 1012.4 |
| 20260905123028 | 66 | 344 | 0.0 | 0.0 | 0.00 | 0.01 | 0.00 | 98 | 1012.6 |
| 20260905121547 | 66 | 344 | 0.0 | 0.0 | 0.00 | 0.01 | 0.00 | 98 | 1012.6 |
| 20260905120023 | 66 | 344 | 0.0 | 0.0 | 0.00 | 0.01 | 0.00 | 98 | 1012.5 |
| 20260905114701 | 66 | 344 | 0.0 | 1.0 | 0.00 | 0.01 | 0.00 | 98 | 1012.3 |
| 20260905113019 | 65 | 344 | 0.0 | 0.0 | 0.00 | 0.01 | 0.00 | 98 | 1012.1 |
| 20260905111655 | 65 | 344 | 0.0 | 0.0 | 0.00 | 0.01 | 0.00 | 98 | 1012.0 |
| 20260905110035 | 65 | 344 | 0.0 | 0.0 | 0.00 | 0.01 | 0.00 | 98 | 1012.1 |
| 20260905104509 | 65 | 344 | 0.0 | 0.0 | 0.00 | 0.01 | 0.00 | 98 | 1012.1 |
| 20260905103040 | 65 | 344 | 0.0 | 0.0 | 0.00 | 0.01 | 0.00 | 98 | 1012.1 |
| 20260905101509 | 66 | 344 | 0.0 | 1.0 | 0.00 | 0.01 | 0.00 | 98 | 1011.7 |
| 20260905100043 | 66 | 344 | 0.0 | 3.0 | 0.00 | 0.01 | 0.00 | 98 | 1011.5 |
| 20260905094502 | 66 | 344 | 0.0 | 2.0 | 0.00 | 0.01 | 0.00 | 98 | 1011.2 |
| 20260905093053 | 66 | 344 | 0.0 | 2.0 | 0.00 | 0.01 | 0.00 | 98 | 1011.4 |
| 20260905091507 | 66 | 344 | 0.0 | 0.0 | 0.00 | 0.01 | 0.00 | 98 | 1011.6 |
| 20260905090044 | 65 | 344 | 0.0 | 0.0 | 0.00 | 0.01 | 0.00 | 98 | 1011.4 |
| 20260905084510 | 65 | 344 | 0.0 | 0.0 | 0.00 | 0.01 | 0.00 | 98 | 1011.4 |
| 20260905083057 | 65 | 344 | 0.0 | 0.0 | 0.00 | 0.01 | 0.00 | 98 | 1011.3 |
| 20260905081514 | 65 | 344 | 0.0 | 0.0 | 0.00 | 0.01 | 0.00 | 98 | 1011.4 |
| 20260905080029 | 65 | 344 | 0.0 | 0.0 | 0.00 | 0.01 | 0.00 | 97 | 1011.3 |
| 20260905074553 | 65 | 344 | 0.0 | 0.0 | 0.00 | 0.01 | 0.00 | 98 | 1011.3 |
| 20260905073001 | 65 | 344 | 0.0 | 0.0 | 0.00 | 0.01 | 0.00 | 97 | 1011.5 |
| 20260905071544 | 65 | 344 | 0.0 | 0.0 | 0.00 | 0.01 | 0.00 | 98 | 1011.7 |
| 20260905070115 | 65 | 344 | 0.0 | 0.0 | 0.00 | 0.01 | 0.00 | 97 | 1011.9 |
| 20260905064545 | 66 | 344 | 0.0 | 0.0 | 0.00 | 0.01 | 0.00 | 97 | 1012.4 |
| 20260905063116 | 66 | 344 | 0.0 | 0.0 | 0.00 | 0.01 | 0.00 | 97 | 1012.5 |
| 20260905061536 | 66 | 344 | 0.0 | 0.0 | 0.00 | 0.01 | 0.00 | 97 | 1012.4 |
| 20260905060003 | 66 | 344 | 0.0 | 0.0 | 0.00 | 0.01 | 0.00 | 97 | 1012.4 |
| 20260905054534 | 66 | 344 | 0.0 | 0.0 | 0.00 | 0.07 | 0.00 | 97 | 1012.6 |
| 20260905053059 | 66 | 344 | 0.0 | 0.0 | 0.00 | 0.07 | 0.00 | 97 | 1012.9 |
| 20260905051532 | 66 | 344 | 0.0 | 0.0 | 0.00 | 0.07 | 0.00 | 97 | 1012.9 |
| 20260905050058 | 66 | 344 | 0.0 | 0.0 | 0.00 | 0.07 | 0.00 | 97 | 1012.8 |
| 20260905044514 | 66 | 344 | 0.0 | 0.0 | 0.00 | 0.09 | 0.00 | 96 | 1012.9 |
| 20260905043108 | 67 | 344 | 0.0 | 0.0 | 0.00 | 0.09 | 0.00 | 96 | 1012.8 |
| 20260905041535 | 67 | 344 | 0.0 | 0.0 | 0.00 | 0.09 | 0.00 | 96 | 1012.6 |
| 20260905040006 | 67 | 344 | 0.0 | 0.0 | 0.00 | 0.09 | 0.00 | 96 | 1012.6 |
| 20260905034547 | 68 | 344 | 0.0 | 0.0 | 0.00 | 0.09 | 0.09 | 96 | 1012.7 |
| 20260905033024 | 68 | 344 | 0.0 | 0.0 | 0.00 | 0.09 | 0.09 | 96 | 1012.6 |
| 20260905031557 | 68 | 344 | 0.0 | 0.0 | 0.00 | 0.09 | 0.09 | 96 | 1012.7 |
| 20260905030026 | 68 | 344 | 0.0 | 0.0 | 0.00 | 0.09 | 0.09 | 95 | 1012.6 |
| 20260905024606 | 69 | 344 | 0.0 | 0.0 | 0.00 | 0.09 | 0.09 | 95 | 1012.7 |
| 20260905023029 | 69 | 344 | 0.0 | 0.0 | 0.00 | 0.09 | 0.09 | 95 | 1012.7 |
| 20260905021608 | 69 | 344 | 0.0 | 0.0 | 0.00 | 0.09 | 0.09 | 95 | 1012.8 |
| 20260905020029 | 70 | 344 | 0.0 | 0.0 | 0.00 | 0.09 | 0.09 | 94 | 1012.6 |
| 20260905014601 | 70 | 344 | 0.0 | 0.0 | 0.00 | 0.11 | 0.09 | 94 | 1012.8 |
| 20260905013030 | 71 | 344 | 0.0 | 0.0 | 0.00 | 0.11 | 0.09 | 93 | 1012.7 |
| 20260905011608 | 71 | 344 | 0.0 | 0.0 | 0.00 | 0.11 | 0.09 | 92 | 1012.5 |
| 20260905010031 | 72 | 344 | 0.0 | 0.0 | 0.00 | 0.11 | 0.09 | 91 | 1012.7 |
| 20260905004606 | 73 | 344 | 0.0 | 0.0 | 0.00 | 0.30 | 0.09 | 90 | 1012.4 |
| 20260905003033 | 73 | 344 | 0.0 | 0.0 | 0.00 | 0.30 | 0.09 | 88 | 1012.4 |
| 20260905001612 | 74 | 344 | 0.0 | 0.0 | 0.00 | 0.30 | 0.09 | 88 | 1012.4 |
| 20260905000031 | 74 | 344 | 0.0 | 0.0 | 0.00 | 0.30 | 0.09 | 87 | 1012.7 |
| 20260904234609 | 75 | 344 | 0.0 | 0.0 | 0.00 | 0.32 | 0.09 | 86 | 1012.5 |
| 20260904233037 | 75 | 344 | 0.0 | 0.0 | 0.00 | 0.32 | 0.09 | 86 | 1012.5 |
| 20260904231603 | 76 | 344 | 0.0 | 0.0 | 0.00 | 0.32 | 0.09 | 84 | 1012.4 |
| 20260904230023 | 77 | 344 | 0.0 | 0.0 | 0.00 | 0.32 | 0.09 | 82 | 1012.2 |
| 20260904224557 | 78 | 343 | 0.0 | 0.0 | 0.00 | 0.35 | 0.09 | 81 | 1012.1 |
| 20260904223136 | 78 | 342 | 0.0 | 2.0 | 0.00 | 0.35 | 0.09 | 79 | 1012.3 |
| 20260904221555 | 79 | 340 | 0.0 | 0.0 | 0.00 | 0.35 | 0.09 | 77 | 1012.1 |
| 20260904220008 | 80 | 340 | 0.0 | 2.0 | 0.00 | 0.35 | 0.09 | 75 | 1012.0 |
| 20260904214555 | 80 | 9 | 0.0 | 2.0 | 0.00 | 1.38 | 0.09 | 73 | 1012.0 |
| 20260904213018 | 81 | 328 | 1.0 | 5.0 | 0.00 | 1.38 | 0.09 | 70 | 1012.0 |
| 20260904211555 | 81 | 201 | 0.0 | 4.0 | 0.00 | 1.38 | 0.09 | 72 | 1011.8 |
| 20260904210114 | 80 | 215 | 1.0 | 4.0 | 0.00 | 1.38 | 0.09 | 76 | 1011.8 |
| 20260904204530 | 79 | 200 | 0.0 | 4.0 | 0.00 | 1.38 | 0.09 | 76 | 1012.1 |
| 20260904203007 | 79 | 360 | 0.0 | 5.0 | 0.00 | 1.38 | 0.09 | 78 | 1012.4 |
| 20260904201553 | 79 | 21 | 1.0 | 6.0 | 0.00 | 1.38 | 0.09 | 77 | 1012.7 |
| 20260904200015 | 79 | 188 | 0.0 | 4.0 | 0.00 | 1.38 | 0.09 | 77 | 1012.4 |
| 20260904194630 | 78 | 331 | 0.0 | 3.0 | 0.00 | 1.38 | 0.09 | 78 | 1012.2 |
| 20260904193033 | 78 | 360 | 1.0 | 4.0 | 0.00 | 1.38 | 0.09 | 81 | 1013.0 |
| 20260904191605 | 78 | 236 | 1.0 | 6.0 | 0.00 | 1.38 | 0.09 | 82 | 1013.8 |
| 20260904190113 | 78 | 15 | 3.0 | 8.0 | 0.00 | 1.38 | 0.09 | 79 | 1013.7 |
| 20260904184530 | 78 | 21 | 3.0 | 7.0 | 0.00 | 1.38 | 0.09 | 80 | 1014.1 |
| 20260904183104 | 78 | 15 | 1.0 | 5.0 | 0.00 | 1.38 | 0.09 | 85 | 1014.0 |
| 20260904181524 | 77 | 355 | 1.0 | 8.0 | 0.00 | 1.38 | 0.09 | 85 | 1013.9 |
| 20260904180116 | 76 | 39 | 1.0 | 4.0 | 0.00 | 1.38 | 0.09 | 88 | 1014.1 |
| 20260904174540 | 75 | 360 | 2.0 | 6.0 | 0.00 | 1.38 | 0.09 | 90 | 1014.2 |
| 20260904173117 | 75 | 184 | 0.0 | 4.0 | 0.00 | 1.38 | 0.09 | 92 | 1014.2 |
| 20260904171538 | 74 | 143 | 0.0 | 3.0 | 0.00 | 1.38 | 0.09 | 95 | 1014.2 |
| 20260904170113 | 72 | 133 | 0.0 | 2.0 | 0.00 | 1.38 | 0.09 | 96 | 1014.6 |
| 20260904164510 | 72 | 57 | 0.0 | 2.0 | 0.00 | 1.38 | 0.09 | 97 | 1014.7 |
| 20260904163047 | 72 | 19 | 0.0 | 2.0 | 0.00 | 1.38 | 0.09 | 97 | 1015.0 |
| 20260904161510 | 71 | 19 | 1.0 | 3.0 | 0.00 | 1.38 | 0.09 | 97 | 1015.4 |
| 20260904160051 | 71 | 17 | 1.0 | 4.0 | 0.00 | 1.38 | 0.09 | 97 | 1015.4 |
| 20260904154515 | 71 | 42 | 1.0 | 4.0 | 0.00 | 1.38 | 0.09 | 97 | 1015.6 |
| 20260904153021 | 71 | 10 | 2.0 | 5.0 | 0.01 | 1.38 | 0.09 | 98 | 1016.1 |
| 20260904151601 | 71 | 22 | 1.0 | 3.0 | 0.01 | 1.38 | 0.09 | 99 | 1015.2 |
| 20260904150019 | 70 | 360 | 0.0 | 1.0 | 0.01 | 1.38 | 0.09 | 99 | 1015.1 |
| 20260904143024 | 69 | 355 | 0.0 | 2.0 | 0.00 | 1.98 | 0.08 | 99 | 1014.9 |
| 20260904141624 | 69 | 355 | 1.0 | 3.0 | 0.00 | 1.98 | 0.08 | 99 | 1014.7 |
| 20260904140035 | 69 | 233 | 0.0 | 0.0 | 0.00 | 1.98 | 0.08 | 99 | 1014.5 |